Weather History for KOMA - September, 2012

Change the Weather History Date:

Wednesday, September 12, 2012

  Actual Average Record
Temperature  
Mean Temperature 66 °F 67 °F  
Max Temperature 79 °F 79 °F 96 °F (1939)
Min Temperature 53 °F 56 °F 37 °F (1975)
Degree Days  
Heating Degree Days 0 2  
Month to date heating degree days 1 16  
Since 1 July heating degree days 7 24  
Cooling Degree Days 1 4  
Month to date cooling degree days 96 69  
Year to date cooling degree days 1638 1049  
Growing Degree Days 16 (Base 50)    
Moisture  
Dew Point 53 °F    
Average Humidity 66    
Maximum Humidity 93    
Minimum Humidity 39    
Precipitation  
Precipitation 1.37 in 0.09 in 2.21 in (1974)
Month to date precipitation 1.38 1.18  
Year to date precipitation 18.10 24.29  
Snow  
Snow 0.00 in 0.00 in - ()
Month to date snowfall 0.0 0.0  
Since 1 July snowfall 0.0 0.0  
Snow Depth 0.00 in    
Sea Level Pressure  
Sea Level Pressure 30.10 in    
Wind  
Wind Speed 13 mph (NNE)    
Max Wind Speed 27 mph    
Max Gust Speed 39 mph    
Visibility 8 miles    
Events Rain , Thunderstorm    
T = Trace of Precipitation, MM = Missing Value Source: NWS Daily Summary

Daily Weather History Graph

Daily Weather History Graph

Search for Another Location

Airport or City:

Trip Planner

Search our weather history database for the weather conditions in past years. The results will help you decide how hot, cold, wet, or windy it might be!

Date:

Astronomy

Sep. 12, 2012 Rise Set
Actual Time 7:01 AM CDT 7:37 PM CDT
Civil Twilight 6:33 AM CDT 8:04 PM CDT
Nautical Twilight 6:00 AM CDT 8:37 PM CDT
Astronomical Twilight 5:26 AM CDT 9:11 PM CDT
Moon 3:17 AM CDT (9/12) 5:26 PM CDT (9/12)
Length of Visible Light 13h 31m
Length of Day
12h 35m
Waning Crescent, 13% of the Moon is Illuminated
Sep 12
Waning Crescent
Sep 15
New
Sep 22
First Quarter
Sep 29
Full
Oct 8
Last Quarter

Hourly Weather History & Observations

Time (CDT) Temp. Dew Point Humidity Pressure Visibility Wind Dir Wind Speed Gust Speed Precip Events Conditions
12:52 AM 79.0 °F 51.1 °F 38% 29.88 in 10.0 mi SSE 18.4 mph - N/A   Overcast
1:52 AM 77.0 °F 51.1 °F 40% 29.88 in 10.0 mi SSE 13.8 mph - N/A   Mostly Cloudy
2:52 AM 75.0 °F 52.0 °F 44% 29.88 in 10.0 mi SSE 13.8 mph - N/A   Scattered Clouds
3:52 AM 73.9 °F 52.0 °F 46% 29.87 in 10.0 mi SSE 15.0 mph - N/A   Overcast
4:52 AM 73.9 °F 53.1 °F 48% 29.94 in 10.0 mi Calm Calm - 0.00 in Rain , Thunderstorm Light Thunderstorms and Rain
5:26 AM 71.6 °F 55.4 °F 57% 29.96 in 10.0 mi SE 8.1 mph - 0.00 in   Mostly Cloudy
5:52 AM 71.1 °F 55.0 °F 57% 29.94 in 10.0 mi SSE 10.4 mph - 0.00 in   Mostly Cloudy
6:52 AM 69.1 °F 54.0 °F 58% 29.95 in 10.0 mi SE 9.2 mph - N/A   Mostly Cloudy
7:52 AM 70.0 °F 55.0 °F 59% 29.97 in 10.0 mi East 3.5 mph - N/A   Mostly Cloudy
8:52 AM 73.0 °F 55.9 °F 55% 29.97 in 10.0 mi SE 9.2 mph - N/A   Mostly Cloudy
9:52 AM 75.0 °F 55.9 °F 51% 30.01 in 10.0 mi Calm Calm - N/A   Mostly Cloudy
10:52 AM 75.9 °F 55.9 °F 50% 30.02 in 10.0 mi NW 10.4 mph - N/A   Mostly Cloudy
11:52 AM 77.0 °F 55.9 °F 48% 30.04 in 10.0 mi North 5.8 mph - N/A   Overcast
12:01 PM 77.0 °F 55.4 °F 47% 30.07 in 10.0 mi NNW 8.1 mph - N/A Thunderstorm Thunderstorm
12:37 PM 73.4 °F 53.6 °F 50% 30.06 in 10.0 mi NNW 15.0 mph - N/A   Overcast
12:52 PM 70.0 °F 57.0 °F 63% 30.05 in 10.0 mi North 11.5 mph - 0.00 in Rain Light Rain
1:52 PM 70.0 °F 55.9 °F 61% 30.06 in 10.0 mi North 16.1 mph - 0.00 in Rain Light Rain
2:52 PM 66.9 °F 51.1 °F 57% 30.06 in 10.0 mi NNE 26.5 mph 33.4 mph 0.00 in Rain Light Rain
3:52 PM 66.0 °F 46.9 °F 50% 30.09 in 10.0 mi North 20.7 mph 32.2 mph 0.00 in   Overcast
4:52 PM 64.9 °F 45.0 °F 48% 30.12 in 10.0 mi North 17.3 mph 29.9 mph N/A   Overcast
5:52 PM 64.0 °F 45.0 °F 50% 30.14 in 10.0 mi NNE 20.7 mph 32.2 mph N/A   Overcast
6:52 PM 60.8 °F 50.0 °F 68% 30.19 in 10.0 mi North 13.8 mph - N/A Rain Light Rain
7:04 PM 59.0 °F 51.8 °F 77% 30.17 in 5.0 mi North 19.6 mph 23.0 mph 0.03 in Rain , Thunderstorm Heavy Thunderstorms and Rain
7:34 PM 57.2 °F 51.8 °F 82% 30.19 in 10.0 mi North 18.4 mph 24.2 mph 0.07 in Rain Light Rain
7:52 PM 55.9 °F 52.0 °F 87% 30.17 in 5.0 mi NE 20.7 mph 26.5 mph 0.09 in Rain Light Rain
8:19 PM 55.4 °F 53.6 °F 94% 30.19 in 2.0 mi North 13.8 mph - 0.09 in Rain Heavy Rain
8:50 PM 55.4 °F 53.6 °F 94% 30.22 in 2.5 mi NNW 11.5 mph - 0.43 in Rain , Thunderstorm Heavy Thunderstorms and Rain
8:51 PM 55.0 °F 53.1 °F 93% 30.21 in 2.5 mi North 12.7 mph - 0.43 in Rain , Thunderstorm Heavy Thunderstorms and Rain
8:54 PM 55.4 °F 53.6 °F 94% 30.22 in 3.0 mi North 13.8 mph - 0.01 in Rain , Thunderstorm Heavy Thunderstorms and Rain
9:34 PM 55.4 °F 53.6 °F 94% 30.23 in 4.0 mi NNW 9.2 mph - 0.16 in Rain Light Rain
9:52 PM 55.0 °F 54.0 °F 96% 30.24 in 3.0 mi North 11.5 mph - 0.22 in Rain , Thunderstorm Light Thunderstorms and Rain
9:59 PM 55.4 °F 53.6 °F 94% 30.25 in 3.0 mi NNW 8.1 mph - 0.05 in Rain , Thunderstorm Thunderstorms and Rain
10:24 PM 55.4 °F 53.6 °F 94% 30.23 in 2.5 mi NNE 11.5 mph - 0.22 in Rain , Thunderstorm Heavy Thunderstorms and Rain
10:47 PM 55.4 °F 53.6 °F 94% 30.25 in 4.0 mi North 12.7 mph - 0.34 in Rain , Thunderstorm Thunderstorms and Rain
10:52 PM 55.0 °F 53.1 °F 93% 30.25 in 4.0 mi North 9.2 mph - 0.36 in Rain , Thunderstorm Thunderstorms and Rain
11:17 PM 55.4 °F 53.6 °F 94% 30.31 in 7.0 mi North 6.9 mph - 0.03 in Rain , Thunderstorm Light Thunderstorms and Rain
11:32 PM 55.4 °F 53.6 °F 94% 30.31 in 4.0 mi North 6.9 mph - 0.08 in Rain Rain
11:52 PM 55.0 °F 53.1 °F 93% 30.28 in 7.0 mi North 10.4 mph - 0.11 in Rain Light Rain